[[{"header":{"parameterUnit":"m.s-1","parameterCategory":2,"la1":30.2991,"la2":30.254,"lo1":-89.0895,"lo2":-89.0444,"dy":0.0017,"dx":0.0017,"nx":28,"ny":28,"refTime":"2023-08-30T09:00:00:Z","depth":"0","parameterNumber":2,"parameterNumberName":"U-component_of_CURRENTS"},"data":[0,0,0,0,0,0,0,0,0,0,0,0,0,0,0,0,0,0,0,0,0,0,0,0,0,0,0,0,0,0,0,0,0,0,0,0,0,0,0,0,0,0,0,0,0,0,0,0,0,0,0,0,0,0,0,0,0,0,0.1773,0.1773,0,0.1772,0.1772,0.1772,0.1772,0.1773,0.1773,0.1773,0.1751,0.175,0.175,0,0,0,0,0,0,0,0,0,0,0,0,0,0.1785,0.1785,0.1773,0.1773,0.1773,0.1772,0.1772,0.1772,0.1772,0.1773,0.1773,0.1773,0.1751,0.175,0.1749,0,0,0,0,0,0,0,0,0,0,0,0,0,0.178,0.1784,0.1773,0.1774,0.1774,0.1772,0.1772,0.1772,0.1772,0.1773,0.1773,0.1773,0.1751,0.175,0.1749,0.1738,0,0,0.1746,0.1746,0,0,0,0,0,0,0,0,0.178,0.178,0.1774,0.1774,0.1774,0.1774,0.1768,0.176,0.1772,0.1772,0.1773,0.1773,0.1757,0.1756,0.1753,0.1737,0.1736,0.1746,0.1745,0.1745,0.1744,0,0,0,0,0,0,0,0.1781,0.178,0.1771,0.1774,0.1774,0.1779,0.1778,0.1767,0.1762,0.1772,0.1772,0.1774,0.1757,0.1755,0.1753,0.1736,0.1746,0.1745,0.1744,0.1744,0.1733,0.1733,0,0,0,0,0,0,0.1783,0.178,0.1771,0.1771,0.178,0.1778,0.1777,0.1773,0.1762,0.1762,0.1774,0.1774,0.1756,0.1754,0.1752,0.176,0.1745,0.1744,0.1743,0.1732,0.1733,0.1733,0,0,0,0,0,0,0.1783,0.1782,0.1771,0.1777,0.1776,0.1778,0.1772,0.1772,0.1773,0.1765,0.1763,0.1775,0.1756,0.1754,0.1748,0.1759,0.1743,0.1742,0.1732,0.1733,0.1733,0.1762,0,0,0,0,0,0,0.1783,0.1781,0.1778,0.1777,0.1776,0.1772,0.1772,0.1772,0.1774,0.1775,0.1765,0.1763,0.1756,0.175,0.1747,0.1757,0.1741,0.1732,0.1732,0.1733,0.1761,0.1764,0.1766,0,0,0,0,0,0.1783,0.1776,0.1778,0.1777,0.1771,0.1772,0.1772,0.1773,0.1774,0.1774,0.1771,0.1763,0.1753,0.1749,0.1746,0.1756,0.1731,0.1732,0.1733,0.176,0.1763,0.1766,0,0,0,0,0,0,0.1776,0.1775,0.1777,0.1769,0.1773,0.1773,0.1772,0.1774,0.1771,0.1771,0.1764,0.1761,0.1763,0.1753,0.1749,0.1755,0.1742,0.1742,0.1764,0.1767,0.177,0.1789,0.1741,0,0,0,0,0,0.1774,0.1768,0.1772,0.1766,0.1769,0.1772,0.1772,0.1774,0.1773,0.1772,0.1765,0.176,0.1762,0.176,0.1755,0.1752,0.1779,0.1758,0.176,0.1763,0.1777,0.1828,0.1837,0.1736,0.1736,0.1736,0,0,0.1767,0.1768,0.1764,0.1764,0.1767,0.1772,0.1772,0.1773,0.178,0.1769,0.1769,0.1767,0.1764,0.1767,0.1767,0.176,0.1806,0.1764,0.1766,0.1779,0.183,0.184,0.1849,0.1736,0.1736,0.1736,0,0,0.1757,0.1755,0.1751,0.1757,0.1765,0.177,0.1772,0.1774,0.1778,0.1779,0.1779,0.1787,0.1774,0.1784,0.1787,0.18,0.1819,0.1793,0.1823,0.1872,0.1881,0.189,0.1944,0.1957,0.1795,0.1795,0.1795,0,0.1752,0.1749,0.175,0.1754,0.1765,0.1771,0.1779,0.1782,0.1782,0.1797,0.1782,0.1801,0.1788,0.1819,0.1822,0.1808,0.1843,0.1811,0.1878,0.1886,0.1895,0.1948,0.1962,0.1796,0.1796,0.1796,0.1796,0,0.1743,0.1745,0.1745,0.1755,0.1765,0.1771,0.1785,0.1794,0.18,0.1813,0.184,0.1832,0.1853,0.1844,0.1833,0.1885,0.1894,0.1877,0.1873,0.1907,0.1961,0.1975,0.1798,0.1798,0.1797,0.1797,0,0,0.172,0.1737,0.1736,0.175,0.177,0.1777,0.1798,0.1829,0.186,0.1858,0.1902,0.1899,0.1913,0.1917,0.1912,0.1941,0.2019,0.1934,0.1936,0.1996,0.2144,0.2121,0.2134,0.2019,0.2021,0.2023,0.2161,0,0.1716,0.1726,0.1739,0.1757,0.1769,0.1795,0.182,0.185,0.1877,0.1918,0.1934,0.1965,0.1937,0.1954,0.1984,0.2014,0.2057,0.1984,0.2096,0.2099,0.2081,0.215,0.2042,0.2153,0.2175,0.2177,0.2179,0,0.1705,0.1717,0.1734,0.1776,0.1785,0.18,0.1862,0.1886,0.195,0.1976,0.2023,0.2041,0.2095,0.2055,0.215,0.2109,0.2135,0.215,0.2156,0.2136,0.2103,0.2121,0.2178,0.2111,0.2201,0.2199,0.2198,0,0.169,0.1716,0.1734,0.1744,0.1789,0.1812,0.1841,0.1905,0.1952,0.2023,0.2077,0.2133,0.2183,0.222,0.2258,0.2216,0.2364,0.231,0.2319,0.2318,0.2249,0.2238,0.226,0.2386,0.2386,0.2385,0.2385,0,0.1683,0.1696,0.1728,0.1737,0.1776,0.1808,0.1871,0.191,0.1994,0.2069,0.2112,0.2186,0.2229,0.2311,0.2315,0.2383,0.2423,0.2353,0.2361,0.2255,0.2243,0.2197,0.2163,0.239,0.2389,0.2388,0.2387,0,0.1661,0.168,0.1705,0.175,0.1768,0.1796,0.1885,0.1936,0.2018,0.2121,0.2153,0.2263,0.2372,0.2422,0.2503,0.2474,0.245,0.2528,0.2405,0.2395,0.2296,0.2267,0.225,0.2184,0.2555,0.2555,0.2556,0,0.165,0.1658,0.1706,0.1729,0.175,0.1803,0.1847,0.1932,0.1999,0.2167,0.2218,0.2361,0.2461,0.2588,0.2565,0.2606,0.2502,0.2503,0.2387,0.2305,0.2279,0.2182,0.212,0.2316,0.2314,0.2313,0.2312,0,0.1635,0.1652,0.1676,0.1727,0.1767,0.1819,0.189,0.1945,0.2063,0.2161,0.2298,0.2395,0.2529,0.2528,0.2581,0.2564,0.2368,0.2475,0.2423,0.2132,0.1998,0.1932,0.2219,0.2299,0.2301,0.2302,0.2302,0.2303,0.1627,0.1647,0.1688,0.1735,0.1777,0.183,0.1866,0.195,0.2052,0.2181,0.2291,0.2395,0.2433,0.2492,0.2466,0.2323,0.2324,0.2213,0.2202,0.2125,0.1999,0.2267,0.2327,0.2328,0.2329,0.233,0.2331,0,0.1638,0.1666,0.1701,0.1756,0.1789,0.182,0.1895,0.1921,0.2009,0.2125,0.2231,0.2261,0.2262,0.2248,0.2151,0.2057,0.1933,0.1987,0.1815,0.1779,0.2054,0.1978,0.1924,0.1924,0.1924,0.1924,0.1924,0.1924,0.165,0.169,0.1711,0.1762,0.179,0.182,0.1849,0.1875,0.1938,0.1982,0.2001,0.2053,0.2094,0.2037,0.1907,0.1844,0.1689,0.162,0.1632,0.1809,0.1828,0.1846,0.1765,0.1668,0.1668,0.1257,0.1254,0.1252]},{"header":{"parameterUnit":"m.s-1","parameterCategory":2,"la1":30.2991,"la2":30.254,"lo1":-89.0895,"lo2":-89.0444,"dy":0.0017,"dx":0.0017,"nx":28,"ny":28,"refTime":"2023-08-30T09:00:00:Z","depth":"0","parameterNumber":3,"parameterNumberName":"V-component_of_CURRENTS"},"data":[0,0,0,0,0,0,0,0,0,0,0,0,0,0,0,0,0,0,0,0,0,0,0,0,0,0,0,0,0,0,0,0,0,0,0,0,0,0,0,0,0,0,0,0,0,0,0,0,0,0,0,0,0,0,0,0,0,0,-0.0179,-0.0179,0,-0.0192,-0.0192,-0.0192,-0.0211,-0.0211,-0.0211,-0.0212,-0.0233,-0.0233,-0.0234,0,0,0,0,0,0,0,0,0,0,0,0,0,-0.0176,-0.0176,-0.0179,-0.0179,-0.0179,-0.0192,-0.0192,-0.0193,-0.0211,-0.0211,-0.0211,-0.0212,-0.0233,-0.0233,-0.0234,0,0,0,0,0,0,0,0,0,0,0,0,0,-0.0182,-0.0176,-0.0179,-0.019,-0.0191,-0.0192,-0.0192,-0.0193,-0.0211,-0.0211,-0.0212,-0.0212,-0.0233,-0.0233,-0.0234,-0.0228,0,0,-0.0235,-0.0235,0,0,0,0,0,0,0,0,-0.0182,-0.0182,-0.0188,-0.0189,-0.019,-0.02,-0.0199,-0.0205,-0.0211,-0.0203,-0.0212,-0.0212,-0.0222,-0.0224,-0.0225,-0.0229,-0.023,-0.0235,-0.0235,-0.0236,-0.0236,0,0,0,0,0,0,0,-0.0181,-0.0182,-0.0184,-0.0188,-0.0189,-0.0196,-0.0197,-0.02,-0.0211,-0.0204,-0.0205,-0.0206,-0.0223,-0.0225,-0.0226,-0.023,-0.0235,-0.0236,-0.0236,-0.0236,-0.0234,-0.0233,0,0,0,0,0,0,-0.0178,-0.0181,-0.0184,-0.0185,-0.0186,-0.0195,-0.0197,-0.0197,-0.0211,-0.0213,-0.0206,-0.0207,-0.0224,-0.0226,-0.0227,-0.0219,-0.0236,-0.0236,-0.0236,-0.0234,-0.0234,-0.0233,0,0,0,0,0,0,-0.0178,-0.0178,-0.0184,-0.0183,-0.0184,-0.0195,-0.0194,-0.0197,-0.0198,-0.0212,-0.0214,-0.0205,-0.0224,-0.0226,-0.0225,-0.022,-0.0236,-0.0237,-0.0234,-0.0234,-0.0233,-0.0204,0,0,0,0,0,0,-0.0178,-0.0178,-0.0175,-0.0183,-0.0184,-0.0178,-0.0194,-0.0197,-0.0198,-0.02,-0.0212,-0.0215,-0.0225,-0.0224,-0.0226,-0.0221,-0.0237,-0.0235,-0.0234,-0.0234,-0.0206,-0.0203,-0.02,0,0,0,0,0,-0.0178,-0.0169,-0.0175,-0.0175,-0.018,-0.0178,-0.0179,-0.0188,-0.0198,-0.0193,-0.0202,-0.0214,-0.0222,-0.0224,-0.0226,-0.0221,-0.0235,-0.0234,-0.0234,-0.0207,-0.0203,-0.0201,0,0,0,0,0,0,-0.0164,-0.017,-0.0177,-0.017,-0.0172,-0.018,-0.0176,-0.0185,-0.0189,-0.0191,-0.0207,-0.021,-0.0208,-0.0217,-0.0219,-0.0219,-0.0231,-0.0231,-0.0211,-0.0207,-0.0205,-0.0203,-0.0237,0,0,0,0,0,-0.016,-0.0156,-0.0163,-0.0156,-0.0156,-0.0166,-0.0167,-0.0173,-0.0178,-0.0181,-0.0191,-0.0201,-0.0206,-0.0208,-0.0214,-0.021,-0.0226,-0.0209,-0.0207,-0.0204,-0.0204,-0.023,-0.023,-0.0231,-0.0231,-0.0231,0,0,-0.0153,-0.0155,-0.0153,-0.0153,-0.0156,-0.015,-0.0167,-0.0164,-0.016,-0.0182,-0.018,-0.0191,-0.0203,-0.0201,-0.0201,-0.0207,-0.021,-0.0203,-0.0201,-0.0202,-0.0229,-0.0229,-0.023,-0.023,-0.023,-0.023,0,0,-0.0134,-0.0138,-0.0128,-0.0129,-0.013,-0.0135,-0.0133,-0.014,-0.0144,-0.0142,-0.0159,-0.0168,-0.0172,-0.0183,-0.0188,-0.0174,-0.0195,-0.0175,-0.0159,-0.0185,-0.0185,-0.0186,-0.0194,-0.0195,-0.0173,-0.0173,-0.0173,0,-0.0125,-0.0116,-0.0124,-0.0114,-0.0112,-0.0126,-0.0115,-0.0119,-0.0126,-0.0128,-0.0136,-0.0154,-0.0165,-0.0169,-0.0164,-0.0169,-0.0181,-0.017,-0.0182,-0.0183,-0.0184,-0.0192,-0.0194,-0.0172,-0.0172,-0.0172,-0.0172,0,-0.0101,-0.0094,-0.0086,-0.0081,-0.0078,-0.007,-0.0077,-0.0077,-0.0086,-0.0095,-0.0102,-0.012,-0.0133,-0.0137,-0.0145,-0.0155,-0.016,-0.0176,-0.019,-0.0182,-0.0191,-0.0194,-0.017,-0.017,-0.017,-0.0171,0,0,-0.008,-0.0071,-0.0068,-0.0061,-0.0062,-0.0055,-0.0049,-0.0047,-0.0043,-0.006,-0.006,-0.0077,-0.0096,-0.0103,-0.012,-0.0141,-0.0155,-0.0157,-0.0159,-0.0166,-0.0199,-0.0179,-0.018,-0.0176,-0.0176,-0.0177,-0.0198,0,-0.0058,-0.0032,-0.0037,-0.0015,-0.0003,-0.0015,-0.0006,-0.0008,-0.0016,-0.0019,-0.0049,-0.0055,-0.008,-0.0085,-0.0111,-0.0141,-0.0163,-0.0147,-0.0206,-0.0207,-0.0191,-0.0183,-0.0154,-0.0169,-0.0201,-0.0201,-0.0202,0,-0.0034,-0.0019,0.0007,0.002,0.0024,0.0032,0.0041,0.0048,0.0037,0.003,0.0008,-0.0017,-0.0042,-0.007,-0.0127,-0.0115,-0.0155,-0.0184,-0.0186,-0.018,-0.0192,-0.0185,-0.0173,-0.0272,-0.0206,-0.0206,-0.0206,0,-0.001,0.0011,0.0033,0.0037,0.005,0.0057,0.0065,0.0063,0.0083,0.006,0.0073,0.0018,0.0014,-0.0057,-0.0107,-0.0123,-0.0166,-0.02,-0.0221,-0.0219,-0.0213,-0.021,-0.0305,-0.0251,-0.0251,-0.0251,-0.0251,0,0.0015,0.0033,0.0046,0.0059,0.0091,0.0086,0.0119,0.0115,0.0125,0.0166,0.0103,0.0126,0.0017,-0.0016,-0.0091,-0.0146,-0.0156,-0.0213,-0.0225,-0.0199,-0.0195,-0.0296,-0.035,-0.0252,-0.0251,-0.0251,-0.0251,0,0.004,0.0046,0.0077,0.0096,0.0105,0.0131,0.0171,0.0201,0.0199,0.0249,0.0249,0.0212,0.0175,0.0077,-0.0021,-0.0101,-0.0223,-0.0196,-0.0145,-0.0151,-0.0278,-0.033,-0.0431,-0.0475,-0.0238,-0.0238,-0.0237,0,0.0055,0.0075,0.0112,0.0143,0.0154,0.0193,0.023,0.0239,0.0284,0.0321,0.0359,0.0328,0.0342,0.0207,0.0055,-0.0075,-0.0183,-0.0155,-0.0192,-0.0277,-0.0345,-0.0393,-0.0426,-0.0169,-0.0168,-0.0168,-0.0167,0,0.0093,0.0106,0.0138,0.0202,0.0244,0.0298,0.0352,0.0397,0.043,0.0483,0.055,0.056,0.0444,0.0329,0.0138,0.0033,-0.022,-0.0146,-0.0257,-0.0314,-0.0351,-0.04,-0.0155,-0.0161,-0.0162,-0.0162,-0.0162,-0.0163,0.0128,0.0162,0.021,0.0269,0.0327,0.0402,0.045,0.0527,0.0614,0.0711,0.0711,0.0774,0.0569,0.0321,0.0158,-0.0142,-0.0167,-0.0247,-0.0306,-0.0349,-0.0388,-0.0117,-0.0122,-0.0123,-0.0123,-0.0123,-0.0123,0,0.0175,0.0214,0.0276,0.035,0.042,0.0436,0.0534,0.0596,0.0713,0.0841,0.0916,0.0884,0.0643,0.0361,-0.0047,-0.0269,-0.0367,-0.0399,-0.0477,-0.0508,-0.0285,-0.0278,-0.0289,-0.0289,-0.0288,-0.0288,-0.0288,-0.0288,0.0204,0.0268,0.0297,0.0415,0.0469,0.0557,0.0611,0.0717,0.0823,0.0981,0.106,0.1092,0.0869,0.0152,-0.0352,-0.0472,-0.0636,-0.0655,-0.0757,-0.062,-0.0612,-0.0603,-0.0612,-0.0692,-0.0692,-0.0951,-0.0953,-0.0955]}],[{"header":{"parameterUnit":"m.s-1","parameterCategory":2,"la1":30.2991,"la2":30.254,"lo1":-89.0895,"lo2":-89.0444,"dy":0.0017,"dx":0.0017,"nx":28,"ny":28,"refTime":"2023-08-30T09:00:00:Z","depth":"2","parameterNumber":2,"parameterNumberName":"U-component_of_CURRENTS"},"data":[0,0,0,0,0,0,0,0,0,0,0,0,0,0,0,0,0,0,0,0,0,0,0,0,0,0,0,0,0,0,0,0,0,0,0,0,0,0,0,0,0,0,0,0,0,0,0,0,0,0,0,0,0,0,0,0,0,0,0.1572,0.1572,0,0.1576,0.1576,0.1576,0.1582,0.1583,0.1583,0.1583,0.1577,0.1577,0.1577,0,0,0,0,0,0,0,0,0,0,0,0,0,0.1573,0.1572,0.1572,0.1572,0.1572,0.1576,0.1576,0.1576,0.1582,0.1583,0.1583,0.1583,0.1578,0.1577,0.1577,0,0,0,0,0,0,0,0,0,0,0,0,0,0.1573,0.1572,0.1572,0.1577,0.1577,0.1576,0.1576,0.1576,0.1582,0.1583,0.1583,0.1583,0.1578,0.1577,0.1577,0.1567,0,0,0.1575,0.1575,0,0,0,0,0,0,0,0,0.1573,0.1573,0.1576,0.1577,0.1577,0.158,0.1575,0.1573,0.1582,0.1579,0.1583,0.1583,0.1578,0.1578,0.1576,0.1566,0.1566,0.1575,0.1575,0.1574,0.1574,0,0,0,0,0,0,0,0.1573,0.1573,0.1572,0.1576,0.1577,0.158,0.158,0.1574,0.1575,0.1579,0.158,0.1583,0.1578,0.1576,0.1576,0.1566,0.1575,0.1574,0.1574,0.1574,0.158,0.1581,0,0,0,0,0,0,0.1574,0.1573,0.1572,0.1573,0.1577,0.158,0.158,0.1578,0.1576,0.1576,0.1582,0.1583,0.1577,0.1576,0.1576,0.1594,0.1574,0.1574,0.1574,0.158,0.158,0.1581,0,0,0,0,0,0,0.1574,0.1574,0.1572,0.1574,0.1574,0.158,0.1577,0.1578,0.1584,0.1578,0.1578,0.1588,0.1577,0.1576,0.158,0.1592,0.1574,0.1573,0.1579,0.158,0.158,0.161,0,0,0,0,0,0,0.1574,0.1574,0.1575,0.1574,0.1574,0.1577,0.1577,0.1578,0.1585,0.1586,0.1583,0.1583,0.1578,0.1581,0.1579,0.1591,0.1573,0.1578,0.1579,0.158,0.1608,0.1612,0.1614,0,0,0,0,0,0.1574,0.1571,0.1575,0.1575,0.1574,0.1578,0.1578,0.1582,0.1585,0.1588,0.1589,0.1583,0.1586,0.1581,0.1579,0.1591,0.1578,0.1579,0.158,0.1607,0.1611,0.1614,0,0,0,0,0,0,0.1571,0.1572,0.1575,0.1573,0.1579,0.1579,0.1583,0.1586,0.1589,0.1591,0.1586,0.1586,0.1595,0.1587,0.1582,0.1596,0.1582,0.1583,0.1603,0.1607,0.161,0.1625,0.1572,0,0,0,0,0,0.1571,0.157,0.1575,0.1574,0.1578,0.1582,0.1585,0.1588,0.159,0.1592,0.1591,0.1591,0.1596,0.1597,0.1596,0.16,0.1619,0.1608,0.1611,0.1613,0.1625,0.1674,0.1683,0.1584,0.1584,0.1584,0,0,0.1568,0.157,0.1569,0.1574,0.1578,0.1584,0.1584,0.159,0.1599,0.159,0.1599,0.16,0.1599,0.1608,0.1611,0.1604,0.1649,0.1615,0.1617,0.1628,0.1676,0.1686,0.1694,0.1585,0.1585,0.1585,0,0,0.1563,0.1567,0.1567,0.1573,0.1583,0.1588,0.1592,0.1597,0.1604,0.1611,0.1612,0.1624,0.1621,0.163,0.1633,0.1651,0.1664,0.1648,0.1677,0.1723,0.1732,0.174,0.1772,0.1783,0.165,0.165,0.165,0,0.1563,0.1563,0.1568,0.1573,0.1584,0.1592,0.16,0.1606,0.1612,0.1628,0.1618,0.1643,0.1635,0.1664,0.1669,0.1659,0.1686,0.1662,0.1729,0.1738,0.1745,0.1776,0.1787,0.1652,0.1651,0.1651,0.1651,0,0.1559,0.1565,0.1567,0.1578,0.1589,0.1598,0.1612,0.1624,0.1634,0.1647,0.1678,0.1675,0.1699,0.1692,0.1684,0.1735,0.1736,0.1729,0.1723,0.1757,0.1787,0.1798,0.1654,0.1653,0.1653,0.1652,0,0,0.1544,0.1562,0.1562,0.1575,0.1596,0.1604,0.1627,0.1656,0.1686,0.1692,0.1736,0.1738,0.1754,0.1759,0.1757,0.1786,0.1853,0.1784,0.1785,0.182,0.1958,0.1915,0.1923,0.1865,0.1867,0.1869,0.1954,0,0.1543,0.1554,0.1567,0.1586,0.1596,0.1622,0.1647,0.1676,0.1705,0.1746,0.1765,0.1798,0.1776,0.1795,0.1826,0.185,0.1886,0.183,0.1915,0.1917,0.188,0.1936,0.1768,0.1827,0.1966,0.1967,0.1969,0,0.1535,0.1547,0.1564,0.1601,0.161,0.1627,0.1684,0.1709,0.1772,0.1799,0.1846,0.1865,0.1915,0.1887,0.1965,0.1935,0.1956,0.1966,0.1969,0.193,0.1896,0.1815,0.1842,0.1988,0.1987,0.1985,0.1984,0,0.1521,0.1546,0.1562,0.1572,0.1614,0.1637,0.1668,0.1728,0.1771,0.1843,0.1894,0.1944,0.1995,0.2024,0.205,0.2021,0.2134,0.2095,0.2076,0.2073,0.1946,0.1927,0.2161,0.2161,0.2161,0.2161,0.2161,0,0.1513,0.1525,0.1558,0.1566,0.1603,0.1636,0.1696,0.1734,0.1813,0.1881,0.1928,0.1989,0.2038,0.2102,0.2096,0.2133,0.2181,0.2101,0.2102,0.1949,0.1931,0.2079,0.2068,0.2164,0.2163,0.2163,0.2162,0,0.1491,0.151,0.1533,0.1577,0.1596,0.1624,0.171,0.1756,0.1836,0.1931,0.1962,0.2061,0.2135,0.2173,0.2234,0.2207,0.2225,0.2225,0.2036,0.2013,0.2116,0.2106,0.2208,0.2207,0.2207,0.2206,0.2206,0,0.1481,0.1488,0.1535,0.1555,0.1577,0.1631,0.1673,0.1755,0.1812,0.1965,0.2008,0.2122,0.217,0.2247,0.2226,0.2227,0.2253,0.207,0.1975,0.2135,0.2127,0.2117,0.2107,0.1815,0.1812,0.1809,0.1807,0,0.1464,0.1481,0.1502,0.1548,0.1588,0.1635,0.1703,0.1744,0.1856,0.1934,0.2029,0.2076,0.2165,0.2088,0.2112,0.2078,0.2048,0.2012,0.2257,0.1826,0.1771,0.1761,0.1763,0.1781,0.1784,0.1786,0.1787,0.1788,0.1455,0.1468,0.1504,0.1544,0.159,0.1629,0.1645,0.1711,0.1781,0.1846,0.1942,0.1944,0.1967,0.19,0.1845,0.1812,0.1946,0.1835,0.1841,0.1851,0.1788,0.1734,0.1725,0.1727,0.1729,0.173,0.1732,0,0.1448,0.147,0.1502,0.1542,0.1568,0.161,0.1658,0.1633,0.1664,0.1718,0.1746,0.1604,0.1564,0.1592,0.151,0.1509,0.1466,0.1434,0.1359,0.1387,0.1412,0.1322,0.1138,0.1136,0.1133,0.1132,0,0,0.1449,0.1474,0.1489,0.1518,0.154,0.1546,0.1553,0.1501,0.1498,0.1426,0.1405,0.1473,0.1551,0.1318,0.1293,0.1204,0.1276,0.1151,0.1635,0.1576,0.1597,0.1661,0.1558,0,0,0,0,0]},{"header":{"parameterUnit":"m.s-1","parameterCategory":2,"la1":30.2991,"la2":30.254,"lo1":-89.0895,"lo2":-89.0444,"dy":0.0017,"dx":0.0017,"nx":28,"ny":28,"refTime":"2023-08-30T09:00:00:Z","depth":"2","parameterNumber":3,"parameterNumberName":"V-component_of_CURRENTS"},"data":[0,0,0,0,0,0,0,0,0,0,0,0,0,0,0,0,0,0,0,0,0,0,0,0,0,0,0,0,0,0,0,0,0,0,0,0,0,0,0,0,0,0,0,0,0,0,0,0,0,0,0,0,0,0,0,0,0,0,0.0037,0.0037,0,0.0021,0.002,0.002,0.0003,0.0003,0.0002,0.0002,-0.0024,-0.0024,-0.0025,0,0,0,0,0,0,0,0,0,0,0,0,0,0.0047,0.0047,0.0037,0.0037,0.0037,0.0021,0.002,0.002,0.0003,0.0003,0.0002,0.0002,-0.0024,-0.0024,-0.0025,0,0,0,0,0,0,0,0,0,0,0,0,0,0.0038,0.0047,0.0037,0.0027,0.0026,0.0021,0.002,0.002,0.0003,0.0003,0.0002,0.0002,-0.0023,-0.0024,-0.0025,-0.0023,0,0,-0.0027,-0.0027,0,0,0,0,0,0,0,0,0.0039,0.0038,0.0028,0.0027,0.0026,0.0014,0.0014,0.0005,0.0003,0.0011,0.0002,0.0002,-0.0012,-0.0013,-0.0016,-0.0024,-0.0025,-0.0027,-0.0028,-0.0028,-0.0028,0,0,0,0,0,0,0,0.0039,0.0038,0.0031,0.0028,0.0027,0.002,0.0019,0.0013,0.0002,0.0011,0.0009,0.0008,-0.0013,-0.0015,-0.0017,-0.0026,-0.0027,-0.0028,-0.0028,-0.0029,-0.0039,-0.0039,0,0,0,0,0,0,0.0042,0.0039,0.0031,0.003,0.0032,0.002,0.0018,0.0018,0.0002,-0.0001,0.0008,0.0007,-0.0014,-0.0016,-0.0018,-0.0015,-0.0028,-0.0029,-0.0029,-0.0039,-0.0039,-0.0039,0,0,0,0,0,0,0.0043,0.0042,0.0032,0.0034,0.0032,0.0021,0.002,0.0018,0.0013,0.0,-0.0003,0.0006,-0.0014,-0.0017,-0.0021,-0.0017,-0.0029,-0.003,-0.004,-0.0039,-0.0039,-0.0011,0,0,0,0,0,0,0.0043,0.0042,0.0043,0.0034,0.0032,0.0032,0.002,0.0018,0.0013,0.0011,-0.0003,-0.0006,-0.0015,-0.0019,-0.0021,-0.0018,-0.003,-0.004,-0.0039,-0.0039,-0.0012,-0.001,-0.0008,0,0,0,0,0,0.0044,0.0048,0.0043,0.0042,0.0034,0.0033,0.0031,0.0021,0.0013,0.0015,0.0005,-0.0005,-0.0019,-0.002,-0.0022,-0.0019,-0.004,-0.004,-0.0039,-0.0013,-0.001,-0.0008,0,0,0,0,0,0,0.0052,0.0046,0.0041,0.0042,0.0039,0.003,0.0031,0.0022,0.0016,0.0013,-0.0001,-0.0004,-0.0007,-0.0016,-0.0017,-0.0021,-0.0032,-0.0032,-0.0012,-0.0009,-0.0007,0.0001,-0.0031,0,0,0,0,0,0.0055,0.0056,0.0049,0.0051,0.005,0.004,0.0037,0.0031,0.0024,0.0021,0.001,-0.0001,-0.0007,-0.001,-0.0018,-0.0018,-0.0029,-0.0019,-0.0017,-0.0015,-0.0011,-0.003,-0.0029,-0.0038,-0.0038,-0.0038,0,0,0.0058,0.0056,0.0056,0.0053,0.0049,0.0054,0.0038,0.0037,0.0041,0.002,0.0019,0.0006,-0.0006,-0.0006,-0.0009,-0.0014,-0.0016,-0.0014,-0.0013,-0.0009,-0.003,-0.0029,-0.0028,-0.0038,-0.0038,-0.0038,0,0,0.0071,0.0064,0.0072,0.0071,0.0067,0.0063,0.0064,0.0055,0.005,0.0049,0.0034,0.0024,0.0015,0.0007,0.0002,0.0011,-0.0005,0.0007,0.0026,0.0007,0.0007,0.0008,0.0005,0.0005,0.0009,0.0009,0.0009,0,0.0075,0.0084,0.0074,0.0082,0.0085,0.0069,0.008,0.0075,0.0065,0.0067,0.0053,0.0036,0.0022,0.0023,0.0024,0.0016,0.0008,0.0018,0.001,0.001,0.001,0.0006,0.0006,0.0011,0.001,0.001,0.001,0,0.0094,0.0101,0.0106,0.0111,0.0113,0.012,0.0113,0.0113,0.0103,0.0097,0.0091,0.0068,0.0058,0.005,0.0041,0.0035,0.0031,0.0014,0.0004,0.0012,0.0008,0.0007,0.0013,0.0012,0.0012,0.0011,0,0,0.0107,0.0118,0.012,0.0131,0.013,0.0137,0.0143,0.0149,0.0159,0.0136,0.0145,0.012,0.0102,0.0095,0.0074,0.0057,0.0048,0.0038,0.0036,0.0038,0.0018,0.0012,0.001,0.0028,0.0028,0.0027,0.002,0,0.0127,0.0153,0.015,0.0175,0.0189,0.018,0.0192,0.0193,0.0188,0.0191,0.016,0.0156,0.0121,0.0116,0.0091,0.0065,0.0045,0.0053,0.0008,0.0008,0.0002,0.0008,0.0024,0.0018,0.0019,0.0019,0.0018,0,0.0148,0.0165,0.0194,0.0217,0.0222,0.0231,0.0251,0.026,0.0258,0.0253,0.0235,0.021,0.0186,0.0148,0.0098,0.0105,0.0063,0.0035,0.0033,0.0016,-0.0002,0.0008,0.0016,0.0016,0.0017,0.0017,0.0017,0,0.0172,0.0197,0.0224,0.023,0.025,0.0261,0.0272,0.0279,0.0304,0.0291,0.0306,0.026,0.025,0.0186,0.0124,0.011,0.007,0.0042,-0.0004,-0.0004,-0.0004,-0.0004,-0.0004,-0.0004,-0.0004,-0.0004,-0.0004,0,0.0197,0.0219,0.0237,0.0252,0.0292,0.0291,0.0332,0.0335,0.0354,0.0399,0.0339,0.0362,0.0258,0.0222,0.0148,0.008,0.0086,0.0004,-0.0009,0.0007,0.0008,-0.0008,-0.0009,-0.0004,-0.0004,-0.0004,-0.0004,0,0.0221,0.023,0.0266,0.0293,0.0305,0.0334,0.0382,0.0417,0.0423,0.0478,0.0478,0.0445,0.0399,0.03,0.0207,0.0124,0.005,0.0019,0.0053,0.0043,-0.0018,-0.0017,-0.0033,-0.0033,-0.0034,-0.0034,-0.0034,0,0.0234,0.0255,0.03,0.0332,0.0345,0.039,0.043,0.045,0.0499,0.0544,0.0582,0.0543,0.0543,0.0401,0.0241,0.0108,0.0075,0.0019,-0.0016,-0.0011,-0.0022,-0.002,-0.0019,0.0001,0.0001,0.0001,0.0001,0,0.0267,0.0281,0.0315,0.0383,0.0428,0.049,0.0548,0.0598,0.0642,0.0694,0.0761,0.0761,0.0617,0.0477,0.0266,0.0172,0.0038,0.0016,0.0015,0.0003,0.0019,0.0009,0.001,0.0002,0.0002,0.0002,0.0002,0.0002,0.0294,0.0329,0.038,0.0445,0.0503,0.0588,0.0653,0.0727,0.0821,0.0905,0.0893,0.0893,0.0708,0.0446,0.026,0.005,0.0062,-0.0019,-0.0019,-0.0018,-0.0016,-0.0002,-0.0021,-0.0022,-0.0022,-0.0022,-0.0022,0,0.034,0.038,0.0442,0.0526,0.0603,0.0623,0.0737,0.0815,0.0939,0.0985,0.1036,0.0876,0.0704,0.0486,0.0179,-0.0,-0.0019,-0.006,-0.0048,-0.0046,-0.0046,-0.0045,-0.0058,-0.0059,-0.006,-0.0061,0,0,0.0367,0.0436,0.047,0.0599,0.0661,0.0775,0.0847,0.0961,0.1023,0.1083,0.1066,0.1026,0.0766,0.0534,0.0291,0.0111,0.0071,0.0076,0.0128,0.0174,0.0177,0.0005,0.0011,0,0,0,0,0]}],[{"header":{"parameterUnit":"m.s-1","parameterCategory":2,"la1":30.2991,"la2":30.254,"lo1":-89.0895,"lo2":-89.0444,"dy":0.0017,"dx":0.0017,"nx":28,"ny":28,"refTime":"2023-08-30T09:00:00:Z","depth":"4","parameterNumber":2,"parameterNumberName":"U-component_of_CURRENTS"},"data":[0,0,0,0,0,0,0,0,0,0,0,0,0,0,0,0,0,0,0,0,0,0,0,0,0,0,0,0,0,0,0,0,0,0,0,0,0,0,0,0,0,0,0,0,0,0,0,0,0,0,0,0,0,0,0,0,0,0,0.0943,0.0944,0,0.0971,0.0971,0.0972,0.1,0.1,0.1001,0.1001,0.1037,0.1037,0.1038,0,0,0,0,0,0,0,0,0,0,0,0,0,0.0911,0.0911,0.0943,0.0944,0.0944,0.0971,0.0971,0.0972,0.0999,0.1,0.1001,0.1001,0.1037,0.1037,0.1038,0,0,0,0,0,0,0,0,0,0,0,0,0,0.0929,0.0911,0.0943,0.0962,0.0965,0.0971,0.0971,0.0972,0.0999,0.1,0.1001,0.1002,0.1037,0.1037,0.1038,0.1027,0,0,0.104,0.104,0,0,0,0,0,0,0,0,0.0928,0.093,0.0959,0.0961,0.0964,0.0984,0.0973,0.0991,0.0999,0.0985,0.1001,0.1002,0.102,0.1022,0.1024,0.1029,0.1031,0.104,0.1041,0.1041,0.1041,0,0,0,0,0,0,0,0.0927,0.0929,0.0953,0.096,0.0962,0.0969,0.0972,0.0977,0.0997,0.0986,0.0988,0.0994,0.1021,0.1023,0.1025,0.1031,0.104,0.1041,0.1041,0.1042,0.11,0.1101,0,0,0,0,0,0,0.0925,0.0928,0.0952,0.0954,0.0949,0.0969,0.0972,0.0975,0.0997,0.1001,0.0993,0.0995,0.1021,0.1024,0.1026,0.1077,0.1041,0.1042,0.1042,0.1099,0.11,0.1102,0,0,0,0,0,0,0.0924,0.0927,0.0951,0.0943,0.0946,0.0969,0.0972,0.0976,0.1002,0.1002,0.1007,0.1018,0.1022,0.1025,0.1053,0.1076,0.1042,0.1043,0.1098,0.1099,0.1101,0.1138,0,0,0,0,0,0,0.0923,0.0927,0.094,0.0943,0.0947,0.0971,0.0971,0.0976,0.1003,0.1007,0.1025,0.1028,0.1023,0.1052,0.1054,0.1076,0.1043,0.1096,0.1098,0.11,0.1135,0.114,0.1145,0,0,0,0,0,0.0922,0.0933,0.094,0.0944,0.0961,0.0972,0.0975,0.0992,0.1004,0.1018,0.1033,0.1028,0.1067,0.1054,0.1055,0.1078,0.1095,0.1098,0.11,0.1133,0.1139,0.1145,0,0,0,0,0,0,0.0929,0.0938,0.0945,0.096,0.0974,0.0978,0.0997,0.1006,0.1028,0.104,0.104,0.1043,0.1077,0.1073,0.1059,0.1102,0.1081,0.1084,0.1105,0.1112,0.1116,0.1114,0.1044,0,0,0,0,0,0.0935,0.0948,0.0956,0.0972,0.098,0.0993,0.1005,0.1016,0.103,0.1042,0.1055,0.107,0.1083,0.1096,0.1105,0.1127,0.1126,0.1144,0.1149,0.1153,0.1154,0.1169,0.1175,0.111,0.111,0.111,0,0,0.0943,0.0951,0.0959,0.0975,0.0988,0.0999,0.1003,0.1028,0.1043,0.1042,0.1076,0.1089,0.1094,0.112,0.1134,0.1123,0.1175,0.1157,0.116,0.1158,0.1172,0.1179,0.1184,0.1112,0.1111,0.1111,0,0,0.0956,0.0973,0.0985,0.0996,0.1019,0.1024,0.1037,0.1054,0.1073,0.11,0.1106,0.1133,0.1154,0.1161,0.1166,0.1204,0.12,0.1215,0.1238,0.1253,0.1259,0.1263,0.1281,0.1287,0.1217,0.1217,0.1217,0,0.0968,0.0978,0.0992,0.1004,0.1017,0.1037,0.105,0.1067,0.1094,0.111,0.112,0.1162,0.117,0.1195,0.1213,0.1215,0.1225,0.1213,0.1259,0.1264,0.1268,0.1285,0.1291,0.1219,0.1219,0.1219,0.1219,0,0.0979,0.0996,0.1006,0.1025,0.1041,0.1059,0.1078,0.1105,0.1131,0.1145,0.1188,0.1203,0.1227,0.1239,0.124,0.1276,0.1276,0.1263,0.1241,0.1276,0.1292,0.1298,0.1222,0.1222,0.1221,0.122,0,0,0.0979,0.1007,0.1013,0.1022,0.1054,0.1063,0.1098,0.1125,0.1146,0.1186,0.1213,0.1251,0.1268,0.1275,0.1285,0.1303,0.1348,0.1303,0.1302,0.1316,0.1392,0.1316,0.1315,0.1347,0.1348,0.1348,0.1395,0,0.0985,0.1004,0.102,0.1043,0.1052,0.1082,0.1106,0.1137,0.1169,0.12,0.1234,0.1264,0.1279,0.1298,0.1322,0.134,0.1363,0.1337,0.1359,0.136,0.1285,0.1318,0.1351,0.1399,0.14,0.1401,0.1402,0,0.0982,0.0996,0.1019,0.1043,0.1052,0.1073,0.1114,0.1139,0.1187,0.1216,0.126,0.128,0.1328,0.1327,0.1385,0.1371,0.1389,0.14,0.1401,0.1318,0.1294,0.1355,0.1412,0.1411,0.141,0.1409,0.1409,0,0.0959,0.099,0.1008,0.1018,0.1053,0.1077,0.1104,0.1151,0.1179,0.1233,0.1265,0.1308,0.1354,0.1375,0.1419,0.1405,0.1474,0.1449,0.1398,0.1393,0.1431,0.1425,0.1483,0.1483,0.1483,0.1483,0.1483,0,0.0942,0.0957,0.1002,0.101,0.1037,0.1069,0.1105,0.1141,0.1194,0.1223,0.1279,0.1311,0.1373,0.1418,0.143,0.144,0.1488,0.1406,0.1399,0.1447,0.1443,0.1435,0.1429,0.1485,0.1485,0.1484,0.1484,0,0.0909,0.0939,0.0961,0.1008,0.1028,0.1051,0.1113,0.1129,0.1197,0.124,0.1263,0.1343,0.1399,0.1449,0.1495,0.1461,0.1464,0.1456,0.1523,0.1518,0.1367,0.1362,0.1382,0.1379,0.1377,0.1376,0.1374,0,0.089,0.09,0.096,0.0977,0.1004,0.1045,0.1067,0.1131,0.1151,0.1245,0.1257,0.1345,0.1387,0.14,0.1453,0.1468,0.1456,0.1444,0.1383,0.1365,0.1357,0.1355,0.1353,0.1371,0.1371,0.137,0.137,0,0.0856,0.0891,0.0912,0.0946,0.0976,0.0997,0.1038,0.1048,0.1113,0.1191,0.1217,0.1242,0.1313,0.1347,0.1388,0.1389,0.1433,0.1422,0.1425,0.1368,0.1353,0.1346,0.1346,0.1363,0.1364,0.1364,0.1365,0,0.084,0.0848,0.088,0.0897,0.0928,0.0922,0.0958,0.0977,0.1008,0.1108,0.1118,0.121,0.1296,0.1309,0.1335,0.1343,0.1311,0.125,0.1261,0.1269,0.1212,0.1174,0.1126,0,0,0,0,0,0.0812,0.0805,0.0822,0.0825,0.0846,0.0862,0.0915,0.095,0.1022,0.1011,0.1058,0.1108,0.115,0.1203,0.119,0.1289,0.132,0.1266,0.1255,0.1325,0.1333,0.1275,0,0,0,0,0,0,0.0792,0.0807,0.0799,0.0749,0.0736,0.0748,0.0779,0.0836,0.0836,0.0925,0.0962,0.103,0.1101,0.1147,0.1164,0.118,0.1148,0.1328,0.1325,0.1321,0.1328,0.1334,0.1278,0,0,0,0,0]},{"header":{"parameterUnit":"m.s-1","parameterCategory":2,"la1":30.2991,"la2":30.254,"lo1":-89.0895,"lo2":-89.0444,"dy":0.0017,"dx":0.0017,"nx":28,"ny":28,"refTime":"2023-08-30T09:00:00:Z","depth":"4","parameterNumber":3,"parameterNumberName":"V-component_of_CURRENTS"},"data":[0,0,0,0,0,0,0,0,0,0,0,0,0,0,0,0,0,0,0,0,0,0,0,0,0,0,0,0,0,0,0,0,0,0,0,0,0,0,0,0,0,0,0,0,0,0,0,0,0,0,0,0,0,0,0,0,0,0,0.0141,0.0141,0,0.013,0.013,0.0129,0.0127,0.0127,0.0127,0.0127,0.0112,0.0112,0.0111,0,0,0,0,0,0,0,0,0,0,0,0,0,0.015,0.015,0.0141,0.0141,0.0141,0.013,0.013,0.0129,0.0127,0.0127,0.0127,0.0127,0.0112,0.0112,0.0111,0,0,0,0,0,0,0,0,0,0,0,0,0,0.0143,0.015,0.0141,0.0138,0.0138,0.013,0.013,0.0129,0.0127,0.0127,0.0127,0.0127,0.0112,0.0112,0.0111,0.0105,0,0,0.0109,0.0109,0,0,0,0,0,0,0,0,0.0144,0.0143,0.0139,0.0138,0.0138,0.013,0.0127,0.0121,0.0127,0.0131,0.0127,0.0127,0.0118,0.0116,0.0114,0.0104,0.0104,0.0109,0.0109,0.0108,0.0108,0,0,0,0,0,0,0,0.0144,0.0143,0.0137,0.0139,0.0138,0.0134,0.0133,0.0126,0.0124,0.0131,0.013,0.0129,0.0117,0.0115,0.0114,0.0103,0.0109,0.0108,0.0108,0.0108,0.0089,0.0089,0,0,0,0,0,0,0.0146,0.0144,0.0137,0.0137,0.0141,0.0133,0.0132,0.0132,0.0124,0.0123,0.0129,0.0129,0.0116,0.0115,0.0113,0.0116,0.0108,0.0108,0.0107,0.0089,0.0089,0.0089,0,0,0,0,0,0,0.0146,0.0145,0.0138,0.014,0.0138,0.0133,0.0133,0.0132,0.0131,0.0123,0.0121,0.0129,0.0116,0.0114,0.0111,0.0115,0.0107,0.0107,0.0089,0.0089,0.0089,0.0114,0,0,0,0,0,0,0.0146,0.0146,0.0147,0.014,0.0138,0.0136,0.0133,0.0132,0.013,0.013,0.0122,0.0121,0.0116,0.0112,0.011,0.0114,0.0106,0.0089,0.0089,0.0089,0.0113,0.0114,0.0116,0,0,0,0,0,0.0147,0.0148,0.0147,0.0146,0.014,0.0136,0.0135,0.0132,0.013,0.0131,0.0126,0.0121,0.0109,0.0111,0.0109,0.0113,0.0089,0.0089,0.0089,0.0112,0.0114,0.0116,0,0,0,0,0,0,0.0151,0.0147,0.0146,0.0146,0.0143,0.0136,0.0136,0.0132,0.0129,0.013,0.0122,0.012,0.0118,0.011,0.0112,0.0105,0.0097,0.0097,0.0116,0.0118,0.0119,0.0132,0.0106,0,0,0,0,0,0.0153,0.0154,0.0148,0.0149,0.0148,0.0142,0.014,0.0138,0.0133,0.0132,0.0126,0.0119,0.0114,0.0112,0.0105,0.0103,0.0096,0.0102,0.0103,0.0105,0.0113,0.0111,0.0113,0.0088,0.0088,0.0088,0,0,0.0154,0.0153,0.0153,0.015,0.0147,0.0151,0.0141,0.014,0.0145,0.0131,0.0134,0.0124,0.0114,0.0113,0.0111,0.0108,0.0105,0.0104,0.0106,0.0113,0.0111,0.0113,0.0116,0.0088,0.0088,0.0088,0,0,0.016,0.0157,0.0162,0.0161,0.0159,0.0156,0.0157,0.0151,0.0151,0.015,0.0142,0.0136,0.0126,0.0123,0.0119,0.0123,0.0112,0.0116,0.0135,0.0133,0.0136,0.0138,0.0121,0.0121,0.0118,0.0118,0.0118,0,0.0162,0.017,0.0162,0.0167,0.0173,0.0161,0.0171,0.0167,0.0161,0.0168,0.0155,0.0147,0.0133,0.014,0.0137,0.0127,0.012,0.0132,0.0136,0.0138,0.014,0.0122,0.0122,0.0119,0.0119,0.0119,0.0118,0,0.0173,0.0181,0.0184,0.0191,0.0193,0.0199,0.0195,0.0198,0.0194,0.0193,0.0196,0.0175,0.0173,0.0162,0.015,0.0155,0.0143,0.0139,0.0136,0.0144,0.0124,0.0124,0.0121,0.012,0.012,0.0119,0,0,0.0177,0.0191,0.0193,0.0208,0.0209,0.0216,0.0224,0.0236,0.0254,0.0235,0.0255,0.023,0.0219,0.0214,0.0194,0.0186,0.0179,0.0168,0.0167,0.0157,0.0165,0.0135,0.0132,0.0178,0.0179,0.0179,0.0142,0,0.0192,0.0216,0.0217,0.0244,0.0258,0.0257,0.0272,0.028,0.0281,0.0294,0.0272,0.0275,0.0239,0.0237,0.0223,0.0195,0.0181,0.0189,0.0153,0.0152,0.013,0.0132,0.018,0.0142,0.0142,0.0142,0.0142,0,0.0206,0.0223,0.0253,0.0286,0.0293,0.0306,0.0339,0.0351,0.0362,0.0363,0.0358,0.0338,0.0319,0.0287,0.0242,0.0249,0.021,0.0182,0.018,0.0147,0.0122,0.0133,0.0141,0.0141,0.0141,0.0141,0.0141,0,0.0222,0.0252,0.0282,0.029,0.0319,0.0339,0.0357,0.0375,0.0399,0.0407,0.0418,0.0392,0.038,0.0334,0.0257,0.0255,0.0206,0.0197,0.0132,0.0128,0.0156,0.0154,0.017,0.017,0.017,0.017,0.017,0,0.0241,0.0266,0.0294,0.0311,0.0357,0.0367,0.0416,0.0429,0.0455,0.0487,0.0455,0.0459,0.0392,0.0348,0.028,0.02,0.0221,0.0137,0.0121,0.0164,0.0164,0.0155,0.0154,0.0168,0.0169,0.0169,0.0169,0,0.0253,0.027,0.0309,0.0348,0.0366,0.0399,0.0454,0.0489,0.0505,0.0544,0.0545,0.0514,0.0452,0.0372,0.0293,0.0228,0.0155,0.012,0.0163,0.015,0.0073,0.0073,0.0053,0.0052,0.005,0.005,0.0049,0,0.026,0.028,0.0334,0.0364,0.0384,0.0437,0.0476,0.0511,0.0546,0.0571,0.0588,0.054,0.0503,0.0371,0.0281,0.0151,0.0127,0.0085,0.0085,0.0076,0.0063,0.0065,0.0067,0.0047,0.0047,0.0047,0.0046,0,0.0273,0.0292,0.0325,0.0388,0.0434,0.0494,0.0548,0.0576,0.0616,0.0627,0.0621,0.055,0.0478,0.0368,0.0262,0.0169,0.0113,0.0074,0.0075,0.0075,0.0069,0.0058,0.0061,0.0043,0.0043,0.0043,0.0044,0,0.0282,0.0309,0.0356,0.0412,0.0472,0.0535,0.0564,0.0603,0.0637,0.0655,0.0647,0.057,0.0526,0.0376,0.0281,0.0183,0.0157,0.0123,0.0121,0.0124,0.0149,0.0152,0.0142,0,0,0,0,0,0.0291,0.0328,0.0379,0.0447,0.0506,0.0551,0.0608,0.0632,0.0661,0.066,0.0657,0.0587,0.0446,0.0384,0.0283,0.0253,0.0135,0.0128,0.0094,0.0022,0.0026,0.004,0,0,0,0,0,0,0.03,0.0348,0.0379,0.0464,0.0519,0.0595,0.0637,0.0658,0.0656,0.0663,0.0589,0.0556,0.0418,0.0509,0.0282,0.0252,0.0213,0.0065,0.0062,0.002,0.0024,0.0027,0.0043,0,0,0,0,0]}]]